Time,TemperatureF,DewpointF,PressureIn,WindDirection,WindDirectionDegrees,WindSpeedMPH,WindSpeedGustMPH,Humidity,HourlyPrecipIn,Conditions,Clouds,dailyrainin,SolarRadiationWatts/m^2,SoftwareType,DateUTC
2013-06-14 00:22:00,51.0,37.0,-100.00,SSW,193,5.0,11.0,58,0.00,,,0.01,8.000000,,2013-06-14 08:22:00,
2013-06-14 00:33:00,51.0,37.0,-100.00,SSW,193,5.0,11.0,58,0.00,,,0.01,8.000000,,2013-06-14 08:33:00,
2013-06-14 00:43:00,51.0,37.0,-100.00,SSW,193,5.0,11.0,58,0.00,,,0.01,8.000000,,2013-06-14 08:43:00,
2013-06-14 00:53:00,51.0,37.0,-100.00,SSW,193,5.0,11.0,58,0.00,,,0.01,8.000000,,2013-06-14 08:53:00,
2013-06-14 01:22:00,50.0,37.0,-100.00,South,174,7.0,14.0,61,0.00,,,0.01,0.000000,,2013-06-14 09:22:00,
2013-06-14 01:33:00,50.0,37.0,-100.00,South,174,7.0,14.0,61,0.00,,,0.01,0.000000,,2013-06-14 09:33:00,
2013-06-14 01:43:00,50.0,37.0,-100.00,South,174,7.0,14.0,61,0.00,,,0.01,0.000000,,2013-06-14 09:43:00,
2013-06-14 01:52:00,50.0,37.0,-100.00,South,174,7.0,14.0,61,0.00,,,0.01,0.000000,,2013-06-14 09:52:00,
2013-06-14 02:22:00,51.0,37.0,-100.00,South,170,6.0,11.0,59,0.00,,,0.01,0.000000,,2013-06-14 10:22:00,
2013-06-14 02:34:00,51.0,37.0,-100.00,South,170,6.0,11.0,59,0.00,,,0.01,0.000000,,2013-06-14 10:34:00,
2013-06-14 02:43:00,51.0,37.0,-100.00,South,170,6.0,11.0,59,0.00,,,0.01,0.000000,,2013-06-14 10:43:00,
2013-06-14 02:52:00,51.0,37.0,-100.00,South,170,6.0,11.0,59,0.00,,,0.01,0.000000,,2013-06-14 10:52:00,
2013-06-14 03:22:00,51.0,36.0,-100.00,South,169,6.0,10.0,57,0.00,,,0.01,0.000000,,2013-06-14 11:22:00,
2013-06-14 03:32:00,51.0,36.0,-100.00,South,169,6.0,10.0,57,0.00,,,0.01,0.000000,,2013-06-14 11:32:00,
2013-06-14 03:43:00,51.0,36.0,-100.00,South,169,6.0,10.0,57,0.00,,,0.01,0.000000,,2013-06-14 11:43:00,
2013-06-14 03:52:00,51.0,36.0,-100.00,South,169,6.0,10.0,57,0.00,,,0.01,0.000000,,2013-06-14 11:52:00,
2013-06-14 04:32:00,51.0,38.0,-100.00,SE,144,6.0,10.0,60,0.00,,,0.01,0.000000,,2013-06-14 12:32:00,
2013-06-14 04:43:00,51.0,38.0,-100.00,SE,144,6.0,10.0,60,0.00,,,0.01,0.000000,,2013-06-14 12:43:00,
2013-06-14 04:52:00,51.0,38.0,-100.00,SE,144,6.0,10.0,60,0.00,,,0.01,0.000000,,2013-06-14 12:52:00,
2013-06-14 05:22:00,51.0,38.0,-100.00,SE,141,4.0,9.0,61,0.00,,,0.01,6.000000,,2013-06-14 13:22:00,
2013-06-14 05:33:00,51.0,38.0,-100.00,SE,141,4.0,9.0,61,0.00,,,0.01,6.000000,,2013-06-14 13:33:00,
2013-06-14 05:43:00,51.0,38.0,-100.00,SE,141,4.0,9.0,61,0.00,,,0.01,6.000000,,2013-06-14 13:43:00,
2013-06-14 05:52:00,51.0,38.0,-100.00,SE,141,4.0,9.0,61,0.00,,,0.01,6.000000,,2013-06-14 13:52:00,
2013-06-14 06:22:00,52.0,39.0,-100.00,SE,130,2.0,5.0,60,0.00,,,0.01,16.000000,,2013-06-14 14:22:00,
2013-06-14 06:34:00,52.0,39.0,-100.00,SE,130,2.0,5.0,60,0.00,,,0.01,16.000000,,2013-06-14 14:34:00,
2013-06-14 06:43:00,52.0,39.0,-100.00,SE,130,2.0,5.0,60,0.00,,,0.01,16.000000,,2013-06-14 14:43:00,
2013-06-14 06:52:00,52.0,39.0,-100.00,SE,130,2.0,5.0,60,0.00,,,0.01,16.000000,,2013-06-14 14:52:00,
2013-06-14 07:23:00,54.0,40.0,-100.00,South,169,3.0,4.0,58,0.00,,,0.01,65.000000,,2013-06-14 15:23:00,
2013-06-14 07:33:00,54.0,40.0,-100.00,South,169,3.0,4.0,58,0.00,,,0.01,65.000000,,2013-06-14 15:33:00,
2013-06-14 07:43:00,54.0,40.0,-100.00,South,169,3.0,4.0,58,0.00,,,0.01,65.000000,,2013-06-14 15:43:00,
2013-06-14 07:52:00,54.0,40.0,-100.00,South,169,3.0,4.0,58,0.00,,,0.01,65.000000,,2013-06-14 15:52:00,
2013-06-14 09:34:00,59.0,42.0,-100.00,WSW,253,3.0,5.0,54,0.00,,,0.01,362.000000,,2013-06-14 17:34:00,
2013-06-14 09:43:00,59.0,42.0,-100.00,WSW,253,3.0,5.0,54,0.00,,,0.01,362.000000,,2013-06-14 17:43:00,
2013-06-14 09:53:00,59.0,42.0,-100.00,WSW,253,3.0,5.0,54,0.00,,,0.01,362.000000,,2013-06-14 17:53:00,
2013-06-14 10:22:00,60.0,44.0,-100.00,NNW,334,3.0,6.0,56,0.00,,,0.01,508.000000,,2013-06-14 18:22:00,
2013-06-14 10:32:00,60.0,44.0,-100.00,NNW,334,3.0,6.0,56,0.00,,,0.01,508.000000,,2013-06-14 18:32:00,
2013-06-14 10:42:00,60.0,44.0,-100.00,NNW,334,3.0,6.0,56,0.00,,,0.01,508.000000,,2013-06-14 18:42:00,
2013-06-14 10:52:00,60.0,44.0,-100.00,NNW,334,3.0,6.0,56,0.00,,,0.01,508.000000,,2013-06-14 18:52:00,
2013-06-14 11:32:00,63.0,44.0,-100.00,WNW,282,3.0,6.0,49,0.00,,,0.01,628.000000,,2013-06-14 19:32:00,
2013-06-14 12:22:00,64.0,44.0,-100.00,West,277,4.0,9.0,49,0.00,,,-99.99,726.000000,,2013-06-14 20:22:00,
2013-06-14 12:33:00,64.0,44.0,-100.00,West,277,4.0,9.0,49,0.00,,,-99.99,726.000000,,2013-06-14 20:33:00,
2013-06-14 12:43:00,64.0,44.0,-100.00,West,277,4.0,9.0,49,0.00,,,-99.99,726.000000,,2013-06-14 20:43:00,
2013-06-14 12:53:00,64.0,44.0,-100.00,West,277,4.0,9.0,49,0.00,,,-99.99,726.000000,,2013-06-14 20:53:00,
2013-06-14 13:22:00,66.0,47.0,-100.00,WSW,251,5.0,9.0,50,0.00,,,0.01,799.000000,,2013-06-14 21:22:00,
2013-06-14 13:34:00,66.0,47.0,-100.00,WSW,251,5.0,9.0,50,0.00,,,0.01,799.000000,,2013-06-14 21:34:00,
2013-06-14 13:42:00,66.0,47.0,-100.00,WSW,251,5.0,9.0,50,0.00,,,0.01,799.000000,,2013-06-14 21:42:00,
2013-06-14 13:52:00,66.0,47.0,-100.00,WSW,251,5.0,9.0,50,0.00,,,0.01,799.000000,,2013-06-14 21:52:00,
2013-06-14 14:22:00,67.0,47.0,-100.00,West,261,5.0,9.0,48,0.00,,,0.00,839.000000,,2013-06-14 22:22:00,
2013-06-14 14:33:00,67.0,47.0,-100.00,West,261,5.0,9.0,48,0.00,,,0.00,839.000000,,2013-06-14 22:33:00,
2013-06-14 14:43:00,67.0,47.0,-100.00,West,261,5.0,9.0,48,0.00,,,0.00,839.000000,,2013-06-14 22:43:00,
2013-06-14 14:52:00,67.0,47.0,-100.00,West,261,5.0,9.0,48,0.00,,,0.00,839.000000,,2013-06-14 22:52:00,
2013-06-14 15:33:00,67.0,44.0,-100.00,West,260,4.0,9.0,43,0.00,,,0.00,843.000000,,2013-06-14 23:33:00,
2013-06-14 15:43:00,67.0,44.0,-100.00,West,260,4.0,9.0,43,0.00,,,0.00,843.000000,,2013-06-14 23:43:00,
2013-06-14 15:52:00,67.0,44.0,-100.00,West,260,4.0,9.0,43,0.00,,,0.00,843.000000,,2013-06-14 23:52:00,
2013-06-14 16:22:00,69.0,42.0,-100.00,NW,317,4.0,9.0,38,0.00,,,0.00,817.000000,,2013-06-15 00:22:00,
2013-06-14 16:33:00,69.0,42.0,-100.00,NW,317,4.0,9.0,38,0.00,,,0.00,817.000000,,2013-06-15 00:33:00,
2013-06-14 16:43:00,69.0,42.0,-100.00,NW,317,4.0,9.0,38,0.00,,,0.00,817.000000,,2013-06-15 00:43:00,
2013-06-14 16:52:00,69.0,42.0,-100.00,NW,317,4.0,9.0,38,0.00,,,0.00,817.000000,,2013-06-15 00:52:00,
2013-06-14 17:22:00,70.0,43.0,-100.00,West,259,5.0,8.0,38,0.00,,,0.00,751.000000,,2013-06-15 01:22:00,
2013-06-14 17:33:00,70.0,43.0,-100.00,West,259,5.0,8.0,38,0.00,,,0.00,751.000000,,2013-06-15 01:33:00,
2013-06-14 17:43:00,70.0,43.0,-100.00,West,259,5.0,8.0,38,0.00,,,0.00,751.000000,,2013-06-15 01:43:00,
2013-06-14 17:54:00,70.0,43.0,-100.00,West,259,5.0,8.0,38,0.00,,,0.00,751.000000,,2013-06-15 01:54:00,
2013-06-14 18:33:00,69.0,45.0,-100.00,SSW,209,5.0,10.0,42,0.00,,,0.00,652.000000,,2013-06-15 02:33:00,
2013-06-14 18:43:00,69.0,45.0,-100.00,SSW,209,5.0,10.0,42,0.00,,,0.00,652.000000,,2013-06-15 02:43:00,
2013-06-14 18:53:00,69.0,45.0,-100.00,SSW,209,5.0,10.0,42,0.00,,,0.00,652.000000,,2013-06-15 02:53:00,
2013-06-14 19:23:00,68.0,46.0,-100.00,SW,221,4.0,7.0,45,0.00,,,0.00,536.000000,,2013-06-15 03:23:00,
2013-06-14 19:32:00,68.0,46.0,-100.00,SW,221,4.0,7.0,45,0.00,,,0.00,536.000000,,2013-06-15 03:32:00,
2013-06-14 19:43:00,68.0,46.0,-100.00,SW,221,4.0,7.0,45,0.00,,,0.00,536.000000,,2013-06-15 03:43:00,
2013-06-14 19:52:00,68.0,46.0,-100.00,SW,221,4.0,7.0,45,0.00,,,0.00,536.000000,,2013-06-15 03:52:00,
2013-06-14 20:22:00,69.0,46.0,-100.00,SW,224,3.0,6.0,44,0.00,,,0.00,408.000000,,2013-06-15 04:22:00,
2013-06-14 20:34:00,69.0,46.0,-100.00,SW,224,3.0,6.0,44,0.00,,,0.00,408.000000,,2013-06-15 04:34:00,
2013-06-14 20:43:00,69.0,46.0,-100.00,SW,224,3.0,6.0,44,0.00,,,0.00,408.000000,,2013-06-15 04:43:00,
2013-06-14 20:53:00,69.0,46.0,-100.00,SW,224,3.0,6.0,44,0.00,,,0.00,408.000000,,2013-06-15 04:53:00,
2013-06-14 21:22:00,69.0,44.0,-100.00,NW,304,2.0,5.0,41,0.00,,,0.00,266.000000,,2013-06-15 05:22:00,
2013-06-14 21:34:00,69.0,44.0,-100.00,NW,304,2.0,5.0,41,0.00,,,0.00,266.000000,,2013-06-15 05:34:00,
2013-06-14 21:42:00,69.0,44.0,-100.00,NW,304,2.0,5.0,41,0.00,,,0.00,266.000000,,2013-06-15 05:42:00,
2013-06-14 21:52:00,69.0,44.0,-100.00,NW,304,2.0,5.0,41,0.00,,,0.00,266.000000,,2013-06-15 05:52:00,
2013-06-14 22:24:00,68.0,42.0,-100.00,SSE,151,0.0,3.0,39,0.00,,,0.00,138.000000,,2013-06-15 06:24:00,
2013-06-14 22:33:00,68.0,42.0,-100.00,SSE,151,0.0,3.0,39,0.00,,,0.00,138.000000,,2013-06-15 06:33:00,
2013-06-14 22:43:00,68.0,42.0,-100.00,SSE,151,0.0,3.0,39,0.00,,,0.00,138.000000,,2013-06-15 06:43:00,
2013-06-14 22:53:00,68.0,42.0,-100.00,SSE,151,0.0,3.0,39,0.00,,,0.00,138.000000,,2013-06-15 06:53:00,
2013-06-14 23:23:00,62.0,37.0,-100.00,SE,146,4.0,5.0,40,0.00,,,0.00,48.000000,,2013-06-15 07:23:00,
2013-06-14 23:33:00,62.0,37.0,-100.00,SE,146,4.0,5.0,40,0.00,,,0.00,48.000000,,2013-06-15 07:33:00,
2013-06-14 23:43:00,62.0,37.0,-100.00,SE,146,4.0,5.0,40,0.00,,,0.00,48.000000,,2013-06-15 07:43:00,
2013-06-14 23:53:00,62.0,37.0,-100.00,SE,146,4.0,5.0,40,0.00,,,0.00,48.000000,,2013-06-15 07:53:00,